Fargo, ND

12:43 AM CDT on August 18, 2019 (GMT -0500)
Hector International

Weather History for KFAR - July, 2019

Change the Weather History Date:

Monday, July 22, 2019

  Actual Average Record
Temperature  
Mean Temperature 66 °F 71 °F  
Max Temperature 79 °F 83 °F 106 °F (1934)
Min Temperature 52 °F 60 °F 42 °F (1887)
Degree Days  
Heating Degree Days 0 0  
Month to date heating degree days 0 12  
Since 1 June heating degree days 58 85  
Since 1 July heating degree days 0 12  
Cooling Degree Days 1 7  
Month to date cooling degree days 182 144  
Year to date cooling degree days 321 282  
Since 1 June cooling degree days 311 251  
Growing Degree Days 16 (Base 50)    
Moisture  
Dew Point 53 °F    
Average Humidity 69    
Maximum Humidity 100    
Minimum Humidity 37    
Precipitation  
Precipitation 0.00 in 0.08 in 2.12 in (1969)
Month to date precipitation 4.63 2.13  
Year to date precipitation 16.27 12.81  
Snow  
Snow 0.00 in 0.00 in 0.00 in ()
Month to date snowfall 0.0 0.0  
Since 1 June snowfall 0.0 0.0  
Since 1 July snowfall 0.0 0.0  
Snow Depth 0.00 in    
Sea Level Pressure  
Sea Level Pressure 30.26 in    
Wind  
Wind Speed 4 mph (NW)    
Max Wind Speed 13 mph    
Max Gust Speed 17 mph    
Visibility 10 miles    
Events      
T = Trace of Precipitation, MM = Missing Value Source: NWS Daily Summary

Daily Weather History Graph

Daily Weather History Graph

Search for Another Location

Airport or City:

Astronomy

Jul. 22, 2019 Rise Set
Actual Time 5:54 AM CDT 9:11 PM CDT
Civil Twilight 5:17 AM CDT 9:48 PM CDT
Nautical Twilight 4:29 AM CDT 10:36 PM CDT
Astronomical Twilight 3:28 AM CDT 11:37 PM CDT
Moon No Moon Rise 11:31 AM CDT (7/22)
Length of Visible Light 16h 30m
Length of Day
15h 16m
Waning Gibbous, 72% of the Moon is Illuminated
Jul 22
Waning Gibbous
Jul 24
Last Quarter
Jul 31
New
Aug 7
First Quarter
Aug 15
Full

Hourly Weather History & Observations

Time (CDT) Temp. Dew Point Humidity Pressure Visibility Wind Dir Wind Speed Gust Speed Precip Events Conditions
12:53 AM 57.9 °F 54.0 °F 87% 30.23 in 10.0 mi North 6.9 mph - N/A   Clear
1:53 AM 55.9 °F 53.1 °F 90% 30.25 in 10.0 mi NNW 3.5 mph - N/A   Clear
2:53 AM 55.0 °F 53.1 °F 93% 30.25 in 10.0 mi NNW 4.6 mph - N/A   Clear
3:53 AM 54.0 °F 52.0 °F 93% 30.26 in 10.0 mi NNW 3.5 mph - N/A   Clear
4:53 AM 54.0 °F 51.1 °F 90% 30.27 in 10.0 mi NNW 5.8 mph - N/A   Clear
5:53 AM 53.1 °F 51.1 °F 93% 30.28 in 10.0 mi Calm Calm - N/A   Clear
6:53 AM 54.0 °F 53.1 °F 97% 30.30 in 10.0 mi Calm Calm - N/A   Clear
7:53 AM 60.1 °F 53.1 °F 78% 30.30 in 10.0 mi North 3.5 mph - N/A   Clear
8:53 AM 64.0 °F 54.0 °F 70% 30.30 in 10.0 mi NNW 3.5 mph - N/A   Clear
9:53 AM 66.9 °F 55.0 °F 66% 30.30 in 10.0 mi Calm Calm - N/A   Clear
10:53 AM 72.0 °F 54.0 °F 53% 30.31 in 10.0 mi NW 6.9 mph - N/A   Clear
11:53 AM 73.9 °F 53.1 °F 48% 30.30 in 10.0 mi NNW 4.6 mph - N/A   Clear
12:53 PM 75.0 °F 51.1 °F 43% 30.30 in 10.0 mi Calm Calm - N/A   Clear
1:53 PM 77.0 °F 52.0 °F 42% 30.29 in 10.0 mi NW 9.2 mph - N/A   Partly Cloudy
2:53 PM 75.9 °F 51.1 °F 42% 30.27 in 10.0 mi West 5.8 mph - N/A   Clear
3:53 PM 78.1 °F 52.0 °F 40% 30.27 in 10.0 mi Variable 5.8 mph - N/A   Scattered Clouds
4:53 PM 78.1 °F 50.0 °F 37% 30.25 in 10.0 mi Variable 3.5 mph - N/A   Clear
5:53 PM 79.0 °F 52.0 °F 39% 30.23 in 10.0 mi North 5.8 mph - N/A   Scattered Clouds
6:53 PM 75.9 °F 54.0 °F 46% 30.22 in 10.0 mi WNW 6.9 mph - N/A   Partly Cloudy
7:53 PM 75.9 °F 54.0 °F 46% 30.21 in 10.0 mi WNW 5.8 mph - N/A   Partly Cloudy
8:53 PM 73.9 °F 55.9 °F 53% 30.21 in 10.0 mi West 4.6 mph - N/A   Clear
9:53 PM 71.1 °F 57.0 °F 61% 30.21 in 10.0 mi WSW 3.5 mph - N/A   Clear
10:53 PM 66.9 °F 57.9 °F 73% 30.22 in 10.0 mi Calm Calm - N/A   Clear
11:53 PM 64.0 °F 57.9 °F 80% 30.23 in 10.0 mi Calm Calm - N/A   Clear